Wetterdaten: aktuell Montag, 17.09.2018 09:45
Datum Zeit Temp. I. Temp. A. Feuchte I. Feuchte A. Luftdruck Regen Wind Richtung Richtung Sonnenschein Taupunkt Windchill Windben
17.09.2018 09:45 20,5 C 14,6 C 48 % 61 % 1023,1 hPa 0,0 l/m 0,0 km/h SO 135 5 min 7,2 C 14,6 C 0,0 km/h
17.09.2018 09:40 20,5 C 14,3 C 48 % 62 % 1023,0 hPa 0,0 l/m 0,0 km/h SO 135 5 min 7,1 C 14,3 C 0,0 km/h
17.09.2018 09:35 20,5 C 13,9 C 48 % 63 % 1023,0 hPa 0,0 l/m 0,0 km/h SO 135 5 min 7,0 C 13,9 C 0,0 km/h
17.09.2018 09:30 20,5 C 13,7 C 48 % 63 % 1023,0 hPa 0,0 l/m 0,0 km/h SO 135 5 min 6,8 C 13,7 C 0,0 km/h
17.09.2018 09:25 20,5 C 13,0 C 48 % 64 % 1023,0 hPa 0,0 l/m 0,0 km/h SO 135 5 min 6,4 C 13,0 C 0,0 km/h
17.09.2018 09:20 20,5 C 12,8 C 48 % 65 % 1023,2 hPa 0,0 l/m 0,0 km/h SO 135 5 min 6,4 C 12,8 C 0,0 km/h
17.09.2018 09:15 20,5 C 12,3 C 48 % 66 % 1023,2 hPa 0,0 l/m 0,0 km/h SO 135 5 min 6,1 C 12,3 C 0,0 km/h
17.09.2018 09:10 20,5 C 12,0 C 48 % 66 % 1023,2 hPa 0,0 l/m 0,0 km/h SO 135 4 min 5,8 C 12,0 C 0,0 km/h
17.09.2018 09:06 20,5 C 11,3 C 48 % 67 % 1023,2 hPa 0,0 l/m 0,0 km/h N 0 6 min 5,4 C 11,3 C 0,0 km/h
17.09.2018 09:00 20,5 C 11,3 C 48 % 67 % 1023,2 hPa 0,0 l/m 0,0 km/h SO 135 5 min 5,4 C 11,3 C 0,0 km/h
17.09.2018 08:55 20,5 C 10,8 C 47 % 68 % 1023,2 hPa 0,0 l/m 0,0 km/h SO 135 5 min 5,1 C 10,8 C 0,0 km/h
17.09.2018 08:50 20,5 C 10,5 C 47 % 68 % 1023,2 hPa 0,0 l/m 0,0 km/h SO 135 5 min 4,8 C 10,5 C 0,0 km/h
17.09.2018 08:45 20,5 C 10,0 C 47 % 69 % 1023,2 hPa 0,0 l/m 0,0 km/h SO 135 5 min 4,6 C 10,0 C 0,0 km/h
17.09.2018 08:40 20,5 C 10,0 C 47 % 69 % 1023,2 hPa 0,0 l/m 0,0 km/h SO 135 5 min 4,6 C 10,0 C 0,0 km/h
17.09.2018 08:35 20,5 C 9,7 C 47 % 69 % 1023,2 hPa 0,0 l/m 0,0 km/h S-SO 157 5 min 4,3 C 9,7 C 0,0 km/h
17.09.2018 08:30 20,5 C 9,4 C 47 % 69 % 1023,2 hPa 0,0 l/m 0,0 km/h S-SO 157 5 min 4,0 C 9,4 C 0,0 km/h
17.09.2018 08:25 20,5 C 9,0 C 47 % 69 % 1023,2 hPa 0,0 l/m 0,0 km/h S-SO 157 5 min 3,6 C 9,0 C 0,0 km/h
17.09.2018 08:20 20,6 C 8,9 C 47 % 69 % 1023,2 hPa 0,0 l/m 0,0 km/h S-SO 157 5 min 3,5 C 8,9 C 0,0 km/h
17.09.2018 08:15 20,6 C 8,7 C 47 % 69 % 1023,2 hPa 0,0 l/m 0,0 km/h S-SO 157 0 min 3,3 C 8,7 C 0,0 km/h
17.09.2018 08:10 20,6 C 8,6 C 47 % 69 % 1023,2 hPa 0,0 l/m 0,0 km/h S-SO 157 0 min 3,2 C 8,6 C 0,0 km/h
17.09.2018 08:06 20,6 C 8,4 C 47 % 69 % 1023,2 hPa 0,0 l/m 0,0 km/h N 0 0 min 3,0 C 8,4 C 0,0 km/h
17.09.2018 08:00 20,6 C 8,4 C 47 % 69 % 1023,2 hPa 0,0 l/m 0,0 km/h S-SO 157 0 min 3,0 C 8,4 C 0,0 km/h
17.09.2018 07:55 20,6 C 8,2 C 48 % 69 % 1023,2 hPa 0,0 l/m 0,0 km/h S-SO 157 0 min 2,9 C 8,2 C 0,0 km/h
17.09.2018 07:50 20,5 C 8,1 C 48 % 69 % 1023,2 hPa 0,0 l/m 0,0 km/h S-SO 157 0 min 2,8 C 8,1 C 0,0 km/h
17.09.2018 07:45 20,6 C 8,0 C 48 % 69 % 1023,2 hPa 0,0 l/m 0,0 km/h S-SO 157 0 min 2,7 C 8,0 C 0,0 km/h
17.09.2018 07:40 20,6 C 7,9 C 47 % 69 % 1023,2 hPa 0,0 l/m 0,0 km/h S-SO 157 0 min 2,6 C 7,9 C 0,0 km/h
17.09.2018 07:35 20,6 C 7,8 C 47 % 69 % 1023,2 hPa 0,0 l/m 0,0 km/h S-SO 157 0 min 2,5 C 7,8 C 0,0 km/h
17.09.2018 07:30 20,6 C 7,8 C 47 % 69 % 1023,2 hPa 0,0 l/m 0,0 km/h S-SO 157 0 min 2,5 C 7,8 C 0,0 km/h
17.09.2018 07:25 20,6 C 7,7 C 47 % 69 % 1023,2 hPa 0,0 l/m 0,0 km/h S-SO 157 0 min 2,4 C 7,7 C 0,0 km/h
17.09.2018 07:20 20,6 C 7,7 C 47 % 69 % 1023,2 hPa 0,0 l/m 0,0 km/h S-SO 157 0 min 2,4 C 7,7 C 0,0 km/h
17.09.2018 07:15 20,6 C 7,5 C 47 % 69 % 1023,2 hPa 0,0 l/m 0,0 km/h S-SO 157 0 min 2,2 C 7,5 C 0,0 km/h
17.09.2018 07:10 20,6 C 7,4 C 47 % 69 % 1023,2 hPa 0,0 l/m 0,0 km/h S-SO 157 0 min 2,1 C 7,4 C 0,0 km/h
17.09.2018 07:06 20,6 C 7,3 C 47 % 68 % 1023,2 hPa 0,0 l/m 0,0 km/h N 0 0 min 1,8 C 7,3 C 0,0 km/h
17.09.2018 07:00 20,6 C 7,3 C 47 % 68 % 1023,2 hPa 0,0 l/m 0,0 km/h S-SO 157 0 min 1,8 C 7,3 C 0,0 km/h
17.09.2018 06:55 20,6 C 7,4 C 47 % 68 % 1023,2 hPa 0,0 l/m 0,0 km/h O-SO 112 0 min 1,9 C 7,4 C 0,0 km/h
17.09.2018 06:51 20,6 C 7,4 C 47 % 68 % 1023,2 hPa 0,0 l/m 0,0 km/h SO 135 0 min 1,9 C 7,4 C 0,0 km/h
17.09.2018 06:45 20,6 C 7,5 C 47 % 68 % 1023,2 hPa 0,0 l/m 0,0 km/h S-SO 157 0 min 2,0 C 7,5 C 0,0 km/h
17.09.2018 06:40 20,6 C 7,5 C 48 % 68 % 1023,0 hPa 0,0 l/m 0,0 km/h W 270 0 min 2,0 C 7,5 C 0,0 km/h
17.09.2018 06:35 20,6 C 7,6 C 47 % 68 % 1023,0 hPa 0,0 l/m 0,0 km/h W 270 0 min 2,1 C 7,6 C 0,0 km/h
17.09.2018 06:30 20,7 C 7,6 C 47 % 68 % 1023,0 hPa 0,0 l/m 0,0 km/h W-SW 247 0 min 2,1 C 7,6 C 0,0 km/h
17.09.2018 06:25 20,6 C 7,8 C 47 % 68 % 1023,0 hPa 0,0 l/m 0,0 km/h SW 225 0 min 2,3 C 7,8 C 0,0 km/h
_ Min-Zeit 09:45 07:06 18:10 17:30 09:40 - 09:45 - - - 07:06 07:06 09:45
Minimum _ 20,5 C 7,3 C 46 % 32 % 1023,0 hPa - 0,0 km/h - - - 1,8 C 7,3 C 0,0 km/h
_ Max-Zeit 23:10 16:50 10:45 08:45 10:20 09:45 13:00 - - 09:06 13:45 16:50 12:30
Maximum _ 21,8 C 27,3 C 53 % 69 % 1026,9 hPa 0,0 l/m 4,5 km/h
N-NO
- - 6 min 10,0 C 27,3 C 11,4 km/h
W-SW
Durchschnitt _ 21,0 C 16,0 C 49 % 54 % 1024,3 hPa #0,0 l/m 0,9 km/h N - #1:30 h 6,2 C 16,0 C 1,4 km/h